Back to catalog

STARLINK-35559

AliveCommunicationsVLEO
NORAD 66095·PAYLOAD·🇺🇸 United States

Launched Oct 19, 2025 from Vandenberg Space Force Base

Loading…

Next Passes (next 24 hours)

TLE

FreshSource: CelesTrak SupGP

Epoch: Sep 14, 2026, 21:05 UTC

1 66095C 25236K   26257.87895833  .00002958  00000+0  87408-4 0  2578
2 66095  53.1586 304.1195 0001127  82.9899 299.0841 15.34386377    16

Track STARLINK-35559 in real time with AllMySat

Download on the App Store